This demonstration page uses our WeatherBlox Daily Observations layout. Learn more.

Left ArrowRight Arrow

Hourly Observations for July 8, 2017

Temp ( °F °C ) Dew Point ( °F °C ) Humidity (%) Winds ( mph kmh ) Pressure ( in mb ) Visibility ( mi km ) Precip ( " mm )
12:53 am 00:53 Clear 75 23.9 49 9.4 40 40 N 6 9 29.87 1012 10 16 0.00 0.00
1:53 am 01:53 Clear 77 25 51 10.6 40 40 NNW 6 9 29.86 1011 10 16 0.00 0.00
2:53 am 02:53 Clear 72 22.2 51 10.6 48 48 N 6 9 29.86 1011 10 16 0.00 0.00
3:53 am 03:53 Clear 72 22.2 50 10 46 46 NNW 5 7 29.86 1011 10 16 0.00 0.00
4:53 am 04:53 Clear 70 21.1 49 9.4 47 47 NW 6 9 29.85 1011 10 16 0.00 0.00
5:53 am 05:53 Sunny 70 21.1 49 9.4 47 47 NNW 3 6 29.85 1011 10 16 0.00 0.00
6:53 am 06:53 Sunny 73 22.8 50 10 44 44 N 5 7 29.86 1011 10 16 0.00 0.00
7:53 am 07:53 Sunny 80 26.7 48 8.9 33 33 VRB 3 6 29.86 1011 10 16 0.00 0.00
8:53 am 08:53 Sunny 87 30.6 48 8.9 26 26 NNW 7 11 29.85 1011 10 16 0.00 0.00
9:53 am 09:53 Sunny 94 34.4 46 7.8 19 19 N 6 9 29.85 1011 10 16 0.00 0.00
10:53 am 10:53 Sunny 98 36.7 42 5.6 15 15 Calm 29.84 1011 10 16 0.00 0.00
11:53 am 11:53 Sunny 101 38.3 41 5 13 13 Calm 29.83 1010 10 16 0.00 0.00
12:53 pm 12:53 Sunny 104 40 37 2.8 10 10 VRB 5 7 29.82 1010 10 16 0.00 0.00
1:53 pm 13:53 Sunny 106 41.1 25 -3.9 6 6 S 5 7 29.81 1010 10 16 0.00 0.00
2:53 pm 14:53 Sunny 107 41.7 31 -0.6 7 7 ESE 9 15 29.79 1009 10 16 0.00 0.00
3:53 pm 15:53 Sunny 108 42.2 28 -2.2 6 6 SSE 10 17 29.78 1009 10 16 0.00 0.00
4:53 pm 16:53 Sunny 109 42.8 31 -0.6 7 7 S 13 20 29.76 1008 10 16 0.00 0.00
5:53 pm 17:53 Sunny 107 41.7 31 -0.6 7 7 SSE 15 24 29.75 1007 10 16 0.00 0.00
6:53 pm 18:53 Sunny 105 40.6 34 1.1 8 8 S 12 19 29.74 1007 10 16 0.00 0.00
7:53 pm 19:53 Sunny 101 38.3 36 2.2 10 10 SSE 8 13 29.75 1007 10 16 0.00 0.00
8:53 pm 20:53 Clear 97 36.1 43 6.1 16 16 SSW 6 9 29.75 1008 10 16 0.00 0.00
9:53 pm 21:53 Clear 89 31.7 49 9.4 25 25 WNW 3 6 29.78 1009 10 16 0.00 0.00
10:53 pm 22:53 Clear 86 30 49 9.4 28 28 Calm 29.80 1009 10 16 0.00 0.00
11:53 pm 23:53 Clear 82 27.8 51 10.6 34 34 Calm 29.80 1009 10 16 0.00 0.00

Powered by AerisWeather